User: anonymous   Login
Location: Bothwell
(42.3833°S, 147.0000°E)
Time: 00:18:18
(UTC+10:00)
Language:

XW-2C - Orbit

View from above orbital plane
View from above orbital plane
View from above satellite
View from above satellite

Ground track
Ground track

The orbit data is extracted from the following two-line orbital elements,

1 40906U 15049H   22274.08841431  .00006488  00000-0  30343-3 0  9996
2 40906  97.4966 276.7406 0013493 359.4780  70.7391 15.20035024388963
Epoch (UTC): 01 October 2022 02:07:18
Eccentricity: 0.0013493
inclination: 97.4966°
perigee height: 496 km
apogee height: 515 km
right ascension of ascending node: 276.7406°
argument of perigee: 359.4780°
revolutions per day: 15.20035024
mean anomaly at epoch: 70.7391°
orbit number at epoch: 38896

The dashed part of the orbit path shows where the satellite is in the earth's shadow,  

DLR